Tracking 31027 objects as of 19-Jul-2025
HD Live streaming from Space Station
objects crossing your sky now

SRMSAT

Track SRMSAT now!
10-day predictions
SRMSAT is classified as:


NORAD ID: 37841
Int'l Code: 2011-058D
Perigee: 853.0 km
Apogee: 870.1 km
Inclination: 20.0 °
Period: 102.0 minutes
Semi major axis: 7232 km
RCS: 0.1933 m2 (medium)
Launch date: October 12, 2011
Source: India (IND)
Launch site: SRIHARIKOTA (SRI)

Uplink (MHz): 145.900
Downlink (MHz): 437.500
Beacon (MHz): 437.425
Mode: CW
Call sign:
Status: Inactive

Your satellite tracking list
STARLINK-6351
Track 1 satellite(s)




NASA's NSSDC Master Catalog

Two Line Element Set (TLE):
1 37841U 11058D   25199.54399324  .00000372  00000-0  58256-4 0  9995
2 37841  19.9719 278.7644 0011812 132.7077 256.0467 14.11445090710624
Source of the keplerian elements: Caltech